Weather History for Worland, WY

Change the Weather History Date:

Sunday, May 11, 2014

  Actual Average Record
Temperature  
Mean Temperature 42 °F 54 °F  
Max Temperature 47 °F 68 °F 88 °F (1960)
Min Temperature 36 °F 39 °F 28 °F (1983)
Degree Days  
Heating Degree Days 23 11  
Month to date heating degree days 167 143  
Since 1 July heating degree days 8069 7610  
Cooling Degree Days 0 0  
Month to date cooling degree days 0 0  
Year to date cooling degree days 0 1  
Moisture  
Dew Point 29 °F    
Average Humidity 64    
Maximum Humidity 85    
Minimum Humidity 42    
Precipitation  
Precipitation T in 0.04 in 0.73 in (2005)
Month to date precipitation 0.54 0.47  
Year to date precipitation 1.61 2.21  
Sea Level Pressure  
Sea Level Pressure 30.11 in    
Wind  
Wind Speed 17 mph (NNW)    
Max Wind Speed 29 mph    
Max Gust Speed 35 mph    
Visibility 10 miles    
Events      
T = Trace of Precipitation, MM = Missing Value Source: NWS Daily Summary

Daily Weather History Graph

Daily Weather History Graph

Search for Another Location

Airport:

Trip Planner

Search our weather history database for the weather conditions in past years. The results will help you decide how hot, cold, wet, or windy it might be!

Date:

Astronomy

May. 11, 2014 Rise Set
Actual Time 5:50 AM MDT 8:26 PM MDT
Civil Twilight 5:17 AM MDT 8:59 PM MDT
Nautical Twilight 4:36 AM MDT 9:41 PM MDT
Astronomical Twilight 3:49 AM MDT 10:28 PM MDT
Moon 5:19 PM MDT (5/11) 4:04 AM MDT (5/11)
Length of Visible Light 15h 42m
Length of Day
14h 36m
Waxing Gibbous, 89% of the Moon is Illuminated
May 11
Waxing Gibbous
May 14
Full
May 21
Last Quarter
May 28
New
Jun 5
First Quarter

Hourly Weather History & Observations

Time (MDT) Temp. Windchill Dew Point Humidity Pressure Visibility Wind Dir Wind Speed Gust Speed Precip Events Conditions
12:53 AM 37.9 °F 33.5 °F 32.0 °F 79% 30.01 in 10.0 mi NW 5.8 mph - N/A   Mostly Cloudy
1:53 AM 37.9 °F 30.9 °F 30.9 °F 76% 29.99 in 10.0 mi NNW 10.4 mph - N/A   Scattered Clouds
2:53 AM 37.0 °F 28.9 °F 30.0 °F 76% 29.99 in 10.0 mi North 12.7 mph - N/A   Mostly Cloudy
3:53 AM 37.0 °F 30.4 °F 30.0 °F 76% 30.01 in 10.0 mi NNW 9.2 mph - N/A   Overcast
4:53 AM 37.0 °F 26.7 °F 28.9 °F 73% 30.01 in 10.0 mi NW 19.6 mph 26.5 mph N/A   Overcast
5:53 AM 36.0 °F 25.6 °F 28.9 °F 76% 30.05 in 10.0 mi NW 18.4 mph 25.3 mph N/A   Scattered Clouds
6:53 AM 37.0 °F 27.0 °F 28.9 °F 73% 30.08 in 10.0 mi NW 18.4 mph 26.5 mph N/A   Scattered Clouds
7:53 AM 37.0 °F 27.0 °F 30.0 °F 76% 30.09 in 10.0 mi NNW 18.4 mph 26.5 mph N/A   Clear
8:53 AM 37.9 °F 27.1 °F 30.0 °F 73% 30.10 in 10.0 mi NW 23.0 mph 32.2 mph N/A   Scattered Clouds
9:53 AM 39.9 °F 28.8 °F 28.9 °F 65% 30.11 in 10.0 mi NNW 27.6 mph 31.1 mph N/A   Clear
11:53 AM 44.1 °F 34.4 °F 28.0 °F 53% 30.11 in 10.0 mi NW 27.6 mph - N/A   Clear
12:53 PM 45.0 °F 36.9 °F 27.0 °F 49% 30.11 in 10.0 mi NW 20.7 mph 29.9 mph N/A   Clear
1:53 PM 46.0 °F 38.5 °F 25.0 °F 44% 30.11 in 10.0 mi NW 19.6 mph - N/A   Partly Cloudy
2:53 PM 46.9 °F - 26.1 °F 44% 30.11 in 10.0 mi NW 21.9 mph 32.2 mph N/A   Partly Cloudy
3:53 PM 46.9 °F - 26.1 °F 44% 30.10 in 10.0 mi NW 25.3 mph - N/A   Scattered Clouds
4:53 PM 46.9 °F - 25.0 °F 42% 30.11 in 10.0 mi NW 20.7 mph 26.5 mph N/A   Overcast
5:53 PM 46.0 °F 38.3 °F 24.1 °F 42% 30.14 in 10.0 mi NNW 20.7 mph 28.8 mph N/A   Overcast
6:53 PM 46.0 °F 38.0 °F 24.1 °F 42% 30.14 in 10.0 mi NW 21.9 mph 26.5 mph N/A   Overcast
7:53 PM 45.0 °F 37.6 °F 24.1 °F 44% 30.17 in 10.0 mi NW 17.3 mph - N/A   Overcast
8:53 PM 42.1 °F 39.2 °F 30.9 °F 65% 30.22 in 10.0 mi North 4.6 mph - 0.00 in   Overcast
9:53 PM 39.9 °F 35.1 °F 32.0 °F 73% 30.25 in 10.0 mi ESE 6.9 mph - N/A   Overcast
10:53 PM 39.0 °F - 33.1 °F 79% 30.25 in 10.0 mi Calm Calm - N/A   Overcast
11:53 PM 37.9 °F - 33.1 °F 83% 30.26 in 10.0 mi Calm Calm - N/A   Overcast